Weather History for Kars, Turkey

Change the Weather History Date:

Tuesday, September 17, 2013

  Actual Average Record
Temperature  
Mean Temperature 58 °F -  
Max Temperature 77 °F 62 °F - ()
Min Temperature 39 °F 36 °F - ()
Degree Days  
Heating Degree Days 7    
Growing Degree Days 8 (Base 50)    
Moisture  
Dew Point 34 °F    
Average Humidity 43    
Maximum Humidity 100    
Minimum Humidity 7    
Precipitation  
Precipitation 0.00 in 0.04 in - ()
Sea Level Pressure  
Sea Level Pressure 29.92 in    
Wind  
Wind Speed 6 mph ()    
Max Wind Speed 21 mph    
Max Gust Speed 25 mph    
Visibility 6.2 miles    
Events      
T = Trace of Precipitation, MM = Missing Value Source: Averaged Metar Reports

Daily Weather History Graph

Daily Weather History Graph

Search for Another Location

Airport:

Trip Planner

Search our weather history database for the weather conditions in past years. The results will help you decide how hot, cold, wet, or windy it might be!

Date:

Astronomy

Sep. 17, 2013 Rise Set
Actual Time 5:50 AM EEST 6:13 PM EEST
Civil Twilight 5:22 AM EEST 6:40 PM EEST
Nautical Twilight 4:50 AM EEST 7:12 PM EEST
Astronomical Twilight 4:17 AM EEST 7:45 PM EEST
Moon 4:47 PM EEST (9/17) 3:19 AM EEST (9/17)
Length of Visible Light 13h 17m
Length of Day
12h 23m
Waxing Gibbous, 94% of the Moon is Illuminated
Sep 17
Waxing Gibbous
Sep 19
Full
Sep 27
Last Quarter
Oct 5
New
Oct 12
First Quarter

Hourly Weather History & Observations

Time (EEST) Temp. Windchill Dew Point Humidity Pressure Visibility Wind Dir Wind Speed Gust Speed Precip Events Conditions
12:50 AM 48.2 °F - 41.0 °F 76% 29.98 in 6.2 mi WSW 2.3 mph - N/A   Partly Cloudy
1:50 AM 48.2 °F - 41.0 °F 76% 29.98 in 6.2 mi Calm Calm - N/A   Partly Cloudy
2:50 AM 44.6 °F - 39.2 °F 81% 29.98 in 6.2 mi Calm Calm - N/A   Partly Cloudy
3:50 AM 42.8 °F - 39.2 °F 87% 29.98 in - Calm Calm - N/A   Clear
4:50 AM 41.0 °F 38.0 °F 41.0 °F 100% 29.98 in - NW 4.6 mph - N/A   Clear
5:50 AM 41.0 °F - 41.0 °F 100% 29.98 in - Calm Calm - N/A   Clear
6:50 AM 41.0 °F - 41.0 °F 100% 30.01 in - Calm Calm - N/A   Clear
7:50 AM 50.0 °F - 41.0 °F 71% 29.98 in - Calm Calm - N/A   Clear
8:50 AM 59.0 °F - 42.8 °F 55% 29.98 in - Calm Calm - N/A   Clear
9:00 AM 59 °F - 42 °F 42%  in 6 mi Calm Calm - -  
9:50 AM 64.4 °F - 41.0 °F 42% 29.98 in 6.2 mi Variable 1.2 mph - N/A   Partly Cloudy
10:50 AM 69.8 °F - 37.4 °F 31% 29.95 in 6.2 mi Variable 2.3 mph - N/A   Partly Cloudy
11:50 AM 73.4 °F - 30.2 °F 20% 29.92 in 6.2 mi SSW 13.8 mph 25.3 mph N/A   Partly Cloudy
12:50 PM 75.2 °F - 30.2 °F 19% 29.92 in 6.2 mi SSW 16.1 mph - N/A   Partly Cloudy
1:50 PM 75.2 °F - 28.4 °F 18% 29.89 in 6.2 mi South 18.4 mph - N/A   Partly Cloudy
2:50 PM 77.0 °F - 26.6 °F 16% 29.86 in 6.2 mi SSW 19.6 mph - N/A   Partly Cloudy
3:00 PM 77 °F - 25 °F 7%  in 6 mi SSW 19.6 mph - -   Scattered Clouds
3:50 PM 77.0 °F - 28.4 °F 17% 29.86 in 6.2 mi South 18.4 mph - N/A   Partly Cloudy
4:50 PM 73.4 °F - 24.8 °F 16% 29.83 in 6.2 mi SSW 20.7 mph - N/A   Scattered Clouds
5:50 PM 71.6 °F - 28.4 °F 20% 29.83 in 6.2 mi SSW 18.4 mph - N/A   Scattered Clouds
6:50 PM 68.0 °F - 30.2 °F 24% 29.86 in 6.2 mi SSW 16.1 mph - N/A   Scattered Clouds
7:50 PM 66.2 °F - 30.2 °F 26% 29.89 in 6.2 mi SSW 13.8 mph - N/A   Scattered Clouds
8:50 PM 66.2 °F - 30.2 °F 26% 29.86 in 6.2 mi SSW 18.4 mph - N/A   Scattered Clouds
9:00 PM 65 °F - 30 °F 16%  in 6 mi SSW 18.4 mph - -   Mostly Cloudy
9:50 PM 64.4 °F - 26.6 °F 24% 29.86 in 6.2 mi SW 18.4 mph - N/A   Mostly Cloudy
10:50 PM 60.8 °F - 24.8 °F 25% 29.89 in 6.2 mi SW 3.5 mph - N/A   Mostly Cloudy
11:50 PM 62.6 °F - 23.0 °F 22% 29.89 in 6.2 mi WSW 13.8 mph - N/A   Mostly Cloudy